Vorticity
11 10 10 9 8 6 5 4 4 2 2 2 1 2 2 2 3 3 4 3 4 5 4 4 2 1 2 3 4 6 10 13 13 9 2 12 18 11 15 11 8 15 5 -2 4 8 7 6 10 10 5 3 1 -1 -3 1 8 4 4 5 2 2 1 2 7 9 11 7 2 9 15 10 5 9 10 6 5 5 3 6 13 12 10 12 13 11 8 9
17 13 10 10 10 9 7 5 5 4 3 3 2 2 1 2 3 3 3 3 4 4 5 4 3 2 1 3 3 3 8 12 14 9 3 13 18 6 10 14 9 12 5 -1 7 9 8 9 7 3 -1 -3 -4 -3 -4 -0 4 1 3 3 -1 1 0 4 12 11 10 5 5 15 14 10 9 9 6 2 2 3 2 6 12 12 9 12 13 10 7 8
21 20 17 13 10 10 10 8 6 5 4 3 3 3 2 2 2 3 3 3 3 4 5 5 4 2 1 2 3 3 4 10 14 11 8 11 13 7 10 13 9 9 4 1 8 7 3 6 4 0 1 2 -1 -1 1 2 5 2 1 1 -3 -2 2 11 12 7 10 5 8 15 12 10 9 6 4 2 4 5 4 4 10 13 9 10 11 8 7 8
14 19 22 21 17 12 10 10 9 7 6 4 4 3 3 2 2 2 3 4 3 3 4 5 5 3 2 1 2 3 2 7 11 11 11 9 11 11 12 13 10 7 4 2 5 5 4 7 6 5 8 9 6 3 4 3 6 6 1 -1 -4 -2 9 17 11 5 8 5 9 15 13 12 8 6 6 6 9 8 7 6 9 13 9 8 9 8 8 10
6 9 15 20 23 21 15 11 10 10 9 6 5 4 4 3 2 2 2 3 3 4 4 5 6 4 3 1 2 2 2 5 6 8 10 9 13 15 13 13 10 6 5 5 5 4 4 2 2 5 6 4 4 2 1 2 4 2 -0 -1 -3 3 13 11 6 5 5 5 8 12 13 13 8 7 7 9 11 10 12 11 8 11 11 8 6 6 9 10
4 4 6 10 16 22 24 20 13 10 10 10 7 5 5 4 3 2 2 3 2 3 3 4 5 5 4 1 2 0 1 7 5 5 8 11 16 16 13 11 11 8 7 10 7 3 -1 -5 -6 -7 -6 -3 2 3 -1 -0 1 -0 -2 -4 -2 9 13 8 10 8 2 7 7 7 11 11 10 10 11 12 10 9 13 9 6 9 12 11 7 5 8 11
5 4 4 4 6 11 19 25 24 17 11 9 10 9 6 5 5 3 2 2 2 3 3 4 4 5 6 2 2 -1 -0 8 6 3 6 12 16 15 12 11 14 11 11 15 9 3 -4 -8 -5 -7 -3 1 0 -1 -4 -3 -1 0 -3 -8 0 10 7 7 17 10 1 8 7 5 9 8 10 12 13 13 8 7 9 6 6 9 11 10 9 7 8 11
7 7 5 4 4 5 7 14 22 26 22 14 9 9 10 7 6 5 4 2 2 3 2 3 4 5 6 4 3 -1 0 5 3 1 6 12 15 15 12 11 16 13 14 17 9 6 -2 -9 -0 4 6 4 -2 -3 -2 -0 -1 1 -2 -6 4 6 1 12 21 9 4 11 7 3 6 6 7 8 9 12 9 7 7 6 6 7 8 9 9 9 10 9
6 7 8 7 5 5 4 5 9 18 26 26 17 10 9 10 8 6 5 4 2 2 2 2 3 4 6 5 3 1 1 2 0 1 5 11 14 14 13 11 14 14 15 14 8 8 1 -5 2 7 7 2 1 1 -2 -1 -2 -0 -1 -6 3 4 4 18 20 8 7 11 5 1 4 7 7 6 6 8 9 8 8 8 8 9 8 7 8 8 9 9
5 5 6 7 8 7 6 5 4 6 13 24 28 20 11 8 10 9 7 6 3 2 2 2 3 3 5 6 5 2 1 2 1 1 3 8 15 13 13 12 10 13 16 11 8 8 2 -2 2 4 4 1 1 3 2 6 4 -1 -2 -5 0 5 9 16 13 4 6 8 6 4 4 5 6 7 5 5 8 9 8 9 10 11 10 8 9 9 9 9
6 5 5 5 6 8 8 7 6 5 5 9 20 28 24 13 8 10 9 8 5 4 2 1 2 3 3 5 6 3 2 2 1 2 2 6 14 12 11 13 8 12 18 10 5 7 3 -1 1 2 2 2 3 3 4 8 6 -3 -5 -5 -4 3 9 11 8 4 5 7 7 6 3 1 4 7 7 4 5 7 7 9 10 9 11 9 9 11 10 9
10 8 7 6 5 5 7 8 8 7 6 4 7 17 27 26 16 9 9 10 8 6 4 2 2 1 3 4 5 5 4 3 1 3 1 4 12 11 11 13 9 13 15 7 2 4 0 -4 -1 -2 -1 4 2 1 1 2 3 -2 -7 -7 0 6 4 5 9 5 3 8 9 6 4 2 3 5 8 7 3 5 6 6 8 8 8 8 9 11 10 10
11 11 10 10 8 6 5 6 8 8 8 7 5 5 13 26 27 17 9 9 10 9 6 4 3 0 2 3 3 6 6 3 2 3 -0 2 10 11 11 10 12 13 7 4 2 -2 -4 -3 -1 -5 0 6 0 0 2 1 4 4 -4 -4 6 4 0 12 15 7 4 10 12 8 6 5 3 4 10 12 4 3 8 6 7 7 7 7 7 10 10 10
8 9 10 10 10 10 9 6 6 7 8 8 8 6 4 11 24 28 19 10 9 11 9 7 6 2 0 3 4 5 7 4 2 2 0 1 5 13 11 6 14 12 4 7 4 -2 -0 3 3 1 6 6 -0 2 2 0 4 5 1 1 10 7 9 20 14 9 7 4 9 8 6 8 5 4 7 13 10 3 4 4 5 6 8 8 5 8 10 10
8 8 8 9 9 10 10 10 8 6 6 7 8 9 6 4 9 22 30 22 11 8 11 10 8 5 2 3 4 5 6 3 2 1 2 1 3 13 12 6 13 9 3 7 4 3 5 7 8 4 3 -1 -1 3 -3 -0 5 4 4 1 7 11 14 15 10 14 9 1 8 4 4 11 10 8 5 8 16 11 4 3 5 4 7 10 8 7 9 12
8 8 8 8 9 9 9 10 10 9 7 6 7 7 8 8 4 8 21 32 27 16 11 14 12 7 6 4 2 5 5 1 3 3 3 4 3 9 10 9 10 6 5 6 4 6 4 8 10 -1 -3 -2 -0 1 -5 2 7 4 8 4 2 7 9 11 12 14 7 8 17 7 6 10 5 9 10 6 12 13 8 6 5 3 5 9 10 9 10 14
7 8 9 9 9 9 9 10 10 10 9 8 8 8 7 8 10 7 6 17 32 29 14 11 14 9 8 8 2 3 4 2 4 4 2 3 2 5 9 11 10 7 6 4 5 7 6 10 7 -4 -0 1 0 -0 -6 -1 5 6 10 7 7 8 11 14 12 9 4 7 17 13 7 4 2 7 11 8 6 5 6 8 9 7 5 5 9 11 10 15
5 6 7 8 9 9 9 10 11 11 10 9 8 9 8 6 9 11 6 3 16 32 25 11 11 11 10 10 6 4 5 4 5 3 3 3 1 4 8 8 10 8 3 3 7 7 8 11 6 -2 -0 4 3 -3 -8 3 17 16 8 9 18 18 13 9 5 7 4 2 14 17 8 10 14 7 2 7 7 5 4 6 8 7 5 4 5 8 8 12
4 4 5 6 7 9 9 9 10 12 12 11 9 9 9 8 8 8 9 7 4 18 32 23 11 11 12 10 10 7 4 4 5 6 7 4 2 4 6 5 8 9 2 3 7 7 10 11 4 -1 2 9 4 -9 0 22 24 8 -2 10 22 13 6 5 4 8 1 -3 14 17 4 9 17 9 4 9 11 10 8 6 5 5 6 4 4 5 5 7
4 4 3 4 5 6 8 8 9 11 12 13 12 10 8 8 10 6 6 12 7 3 21 32 18 7 9 10 10 9 6 4 5 8 7 5 3 3 3 3 5 8 5 6 6 6 11 10 2 3 9 11 -0 -7 13 25 9 -4 -1 9 9 -6 -3 5 2 2 -5 -5 13 11 -9 -12 -3 5 8 10 13 13 10 7 4 4 6 4 4 5 4 5
4 5 4 3 4 5 5 6 7 9 11 13 14 13 12 8 8 8 6 10 14 4 6 28 31 15 7 8 10 10 9 6 3 7 9 5 3 1 1 2 2 5 9 11 6 4 10 8 7 14 11 1 -3 3 16 13 -2 1 3 1 -2 -13 -3 9 -2 -4 -4 -4 8 8 -5 -12 -6 6 7 6 13 16 11 5 5 5 5 5 4 4 5 5
4 4 5 4 4 5 4 3 5 7 8 11 13 14 16 14 8 8 6 6 18 14 -1 12 33 31 14 4 7 9 9 9 4 4 8 6 4 3 2 2 3 6 10 8 3 5 11 12 18 21 5 -7 -0 6 11 9 -1 1 -1 -3 -1 -11 -3 8 -7 -9 -4 -6 1 7 7 0 -4 5 7 4 8 15 15 8 6 5 2 5 4 3 5 4
5 4 4 5 5 5 4 3 4 5 6 8 10 13 16 17 14 11 6 3 14 21 8 1 17 34 31 15 9 10 10 12 7 3 6 7 6 5 2 3 5 5 7 5 2 2 11 24 26 12 -5 -7 3 4 10 11 -1 -2 -1 -0 1 -7 -2 1 -10 -9 -9 -9 -1 1 4 -1 -7 1 4 3 6 14 19 13 8 4 3 7 6 4 6 4
7 5 5 5 5 6 5 4 5 4 5 5 7 11 13 16 19 17 12 2 3 18 19 5 3 24 39 27 12 11 13 14 9 4 5 8 9 5 2 6 5 3 3 4 2 -1 10 28 21 2 -6 -3 2 5 11 12 1 -2 0 -0 -0 -1 1 -5 -6 -2 -8 -2 5 2 4 -4 -6 1 -2 3 8 9 18 16 7 4 6 10 7 7 9 6
8 7 6 6 5 6 6 4 5 5 5 5 5 9 9 13 18 19 20 10 -2 8 19 13 6 12 27 29 17 10 13 17 13 7 4 5 9 8 7 6 2 3 4 3 2 1 14 27 14 3 2 -2 3 10 12 11 2 -4 -1 1 -0 0 -0 -5 -2 -0 -2 9 7 4 8 -7 -8 1 -5 4 8 8 22 21 12 10 12 13 9 8 9 7
10 9 7 7 6 6 6 5 6 5 4 5 6 7 7 9 14 16 24 17 0 3 14 15 12 9 17 30 29 17 12 17 17 11 6 3 7 9 9 5 3 6 4 1 2 0 11 23 13 6 3 -2 6 12 11 11 5 -1 -2 -2 -2 -0 2 1 2 -0 2 8 -2 2 10 -1 2 8 -1 -1 2 14 23 13 11 15 14 14 11 11 11 6
11 10 8 8 7 6 6 6 6 5 4 6 6 6 6 7 10 13 20 21 10 8 11 11 14 15 16 21 27 20 13 18 21 15 8 5 6 8 9 7 5 8 5 -0 1 3 10 18 14 7 1 0 5 9 12 9 4 3 -7 -10 -1 3 0 -2 -2 -3 1 -0 -2 9 13 8 12 9 1 -3 -0 20 20 3 8 12 8 12 13 15 16 12
11 11 9 9 8 6 7 7 7 5 5 7 6 5 6 6 8 11 16 20 20 18 15 13 18 22 18 17 25 24 13 17 24 19 13 10 7 6 8 11 9 8 6 0 -1 4 8 13 16 9 0 2 3 9 14 0 0 10 -3 -7 8 7 -2 -2 -3 -3 1 1 3 10 5 3 7 3 3 1 1 14 7 -2 8 7 4 7 6 11 14 14
11 11 10 10 9 6 7 9 7 5 6 7 6 5 6 6 7 9 11 15 21 19 11 12 19 22 18 15 23 25 13 11 17 18 13 11 11 8 6 10 13 9 5 1 -0 4 5 8 16 10 0 2 3 12 14 -5 1 21 10 3 11 7 -1 -2 -3 -2 5 7 7 8 3 0 -0 -2 4 5 8 15 5 0 4 0 2 4 3 7 10 16
10 11 10 10 10 7 7 10 8 5 6 6 6 6 5 6 7 7 11 17 23 21 13 12 14 16 20 17 19 23 18 13 13 15 14 9 9 12 10 9 13 11 6 3 2 4 4 6 13 8 1 3 5 12 9 -5 3 21 15 5 5 5 -3 -7 -3 -1 4 7 5 6 5 5 3 2 7 5 7 12 1 -2 7 5 2 3 5 4 6 19
8 10 10 9 10 9 8 10 8 6 7 6 6 6 5 7 5 5 11 15 18 19 18 18 15 13 16 14 16 22 21 17 14 13 14 11 6 7 9 10 11 9 5 3 3 4 6 8 11 9 3 4 8 11 6 -1 5 16 13 2 0 3 -6 -8 -1 -3 -1 2 3 6 4 3 3 4 10 7 6 8 -10 -12 12 19 5 1 7 3 0 11
7 8 10 9 9 10 10 9 7 5 7 7 6 6 6 6 4 8 15 16 18 19 17 20 23 19 13 9 13 19 22 22 20 16 13 13 11 8 8 10 11 9 4 2 4 4 6 8 11 10 5 4 8 10 6 3 6 14 14 0 -2 2 -3 -4 -3 -5 3 4 -0 1 -0 2 1 -2 8 10 9 14 -1 -10 9 17 4 -2 2 0 -1 4
7 7 9 9 8 9 10 9 6 5 7 7 6 6 5 5 5 9 17 18 19 23 19 16 20 21 17 17 17 13 14 17 16 19 19 15 14 14 12 11 11 11 10 10 8 5 5 6 9 10 7 5 8 9 9 6 6 13 16 4 -2 2 -1 -2 -4 -5 6 8 4 3 0 4 -0 -4 11 15 9 7 -4 -9 2 9 3 -3 3 8 8 11
8 6 8 10 8 8 10 9 6 6 7 7 7 6 5 5 4 8 19 19 14 18 19 13 15 19 17 19 20 10 8 15 15 14 19 20 19 18 14 12 11 9 11 13 10 7 6 4 6 9 6 6 8 8 11 10 6 9 14 7 1 1 -4 -3 1 3 5 4 5 6 4 3 -6 -9 5 10 5 1 -7 -7 -0 1 -5 -7 9 18 11 12
8 7 7 9 9 8 9 10 8 7 7 8 8 5 5 6 7 10 18 19 12 13 16 11 12 19 16 15 22 16 5 10 16 16 21 23 20 20 20 16 13 10 8 8 8 9 7 4 8 10 9 9 7 7 14 14 6 6 12 7 0 -1 -6 -10 -3 6 9 6 4 1 -0 3 -0 0 6 5 4 3 -2 1 2 -4 -11 -9 8 13 5 8
8 8 7 8 10 11 9 9 10 8 6 8 8 6 6 8 9 11 13 14 13 13 15 13 12 15 13 10 13 12 3 1 5 12 21 26 21 19 23 23 19 15 11 7 7 9 7 6 9 10 10 10 8 9 13 12 8 4 6 8 2 -3 -4 -9 -10 -1 5 7 10 6 -2 1 7 13 10 0 -0 3 1 3 2 -1 -3 -5 5 10 4 5
8 9 8 7 9 11 10 9 9 9 7 8 8 5 5 8 10 11 13 15 14 14 17 15 10 7 10 9 2 0 3 -1 -1 5 9 19 26 19 17 24 24 19 15 11 10 12 10 8 8 9 10 9 9 13 10 6 9 2 -1 10 7 -6 -4 -4 -9 -4 2 3 9 9 2 -0 1 2 -1 -4 2 8 8 13 16 19 22 15 11 13 8 3
8 9 9 8 8 9 11 9 9 9 8 7 7 5 4 9 14 12 13 16 13 13 17 16 9 4 6 10 1 -1 2 -8 -6 8 4 7 25 22 15 23 27 25 20 11 10 14 14 12 9 9 12 10 8 15 13 6 8 6 6 17 13 -0 2 2 -9 -8 2 5 3 1 -2 -0 -1 -2 2 7 10 6 5 19 28 24 24 21 12 7 4 -1
9 9 9 9 8 8 11 10 9 8 8 7 7 7 7 11 15 14 14 17 13 11 17 18 11 5 5 8 2 1 6 -3 -4 7 3 3 15 14 13 22 25 28 28 17 9 10 14 15 13 10 11 12 9 9 11 11 11 12 14 16 15 10 9 8 0 -6 -1 6 6 -0 -6 -3 4 5 9 14 12 8 9 16 17 8 6 9 6 4 3 -1
9 8 9 11 10 8 9 11 10 9 9 8 7 8 9 9 11 13 13 14 12 9 15 19 14 6 6 10 5 -1 2 2 -1 -0 -1 2 6 3 8 21 24 23 30 29 16 8 12 13 12 15 13 12 11 3 4 17 18 13 9 4 8 13 5 3 10 6 0 2 4 1 -6 -4 7 10 9 9 1 2 13 15 10 7 6 5 5 5 4 -0
10 8 9 12 10 8 9 11 11 11 10 8 8 8 9 8 10 14 14 13 13 10 12 19 18 7 4 11 10 -0 -4 -4 -5 -1 1 -1 -1 -0 -0 11 23 22 24 35 27 10 9 9 10 18 15 9 10 5 5 18 17 7 5 1 1 8 2 -1 11 13 7 5 0 -4 -5 -2 2 4 7 9 1 0 12 14 8 8 7 5 4 5 4 2
10 10 9 10 11 9 9 11 11 11 10 9 9 9 8 8 9 12 13 11 11 10 11 19 21 9 2 7 9 3 2 -2 -6 1 6 0 1 6 1 1 14 18 16 29 37 26 17 12 9 14 13 10 16 12 4 13 15 5 4 7 4 7 10 8 7 7 8 8 -0 -5 -3 -1 3 9 13 17 17 17 14 5 -2 -1 4 7 4 1 4 6
9 13 11 7 11 11 9 12 13 12 12 10 8 8 8 8 8 11 13 11 10 12 11 16 23 14 -1 0 8 10 13 11 1 -1 5 6 4 4 6 7 8 11 11 16 28 33 29 22 14 13 16 13 15 14 3 5 15 9 4 10 8 7 18 23 11 2 7 6 -2 -1 3 3 15 29 26 19 21 19 8 -1 -3 -1 5 9 6 1 2 3
7 14 14 7 8 12 12 12 13 13 11 10 8 6 7 8 8 11 15 14 11 11 12 14 22 19 1 -3 6 8 13 17 7 -2 1 8 8 -1 2 10 7 9 12 8 12 19 23 25 17 14 19 14 8 11 5 0 8 10 6 5 3 1 13 26 18 7 11 6 -9 -4 7 4 7 16 11 6 12 14 10 9 7 8 14 17 16 13 8 2
7 13 17 10 5 10 13 10 11 13 11 11 10 9 10 11 11 12 14 17 12 10 13 13 19 22 6 1 9 4 5 14 10 3 1 2 6 5 8 12 8 9 9 3 7 11 17 29 25 13 14 10 3 3 3 2 5 7 6 1 -1 -2 2 18 24 15 15 12 -3 -1 10 3 -2 2 1 0 2 4 7 7 5 11 17 18 19 17 8 4
8 10 17 16 6 6 13 12 12 13 12 12 11 11 13 13 13 12 12 18 15 11 14 10 17 26 8 0 12 3 -6 7 14 9 3 1 3 6 18 22 8 5 5 -4 -2 2 3 18 30 28 18 5 4 10 10 10 7 3 5 3 3 2 -0 18 31 12 0 5 4 8 12 0 -4 4 7 7 6 3 0 -1 3 11 11 10 11 9 4 5
10 9 15 20 11 5 11 13 12 12 13 12 10 10 12 12 14 12 10 18 15 9 14 9 14 28 14 -2 5 -2 -13 1 18 13 -1 3 12 6 12 19 3 -2 2 -6 -4 1 -3 3 18 34 34 14 9 20 16 11 10 6 5 6 9 9 6 20 25 -1 -10 3 5 6 9 2 3 7 3 1 3 -2 -4 3 11 11 7 7 9 6 6 6
11 10 13 19 16 8 9 12 12 12 13 13 10 10 11 10 13 11 10 18 16 9 12 9 10 24 20 3 -2 -3 -6 -4 13 26 13 4 14 8 6 16 10 3 3 -3 -2 0 -1 2 1 15 38 30 11 9 7 5 8 4 2 7 11 11 13 20 13 -8 -9 4 5 3 5 6 8 6 -2 -1 5 2 1 8 14 10 5 6 6 4 4 2
11 11 11 16 18 13 9 10 13 14 15 15 12 11 11 9 11 10 10 18 18 10 8 8 9 17 19 13 5 4 2 -13 -6 29 32 9 2 -1 2 15 16 10 10 10 10 3 -1 7 0 -3 22 36 21 7 2 1 4 5 8 12 12 11 14 16 5 -7 -7 -2 1 5 6 5 8 4 -4 -0 8 9 6 2 0 1 2 1 0 0 -1 -1
12 12 12 14 17 16 12 10 11 13 15 16 14 11 12 13 11 8 8 15 17 11 7 7 8 11 14 17 17 13 2 -18 -17 12 24 11 2 -6 -6 10 15 12 11 10 14 15 7 7 7 -3 4 27 33 15 -1 -1 7 11 10 11 12 10 11 13 7 2 1 0 6 13 11 7 6 2 -2 -2 -4 -2 3 1 -4 -2 6 6 2 1 -1 1
13 12 13 14 16 18 16 12 11 13 13 14 14 13 13 14 12 8 7 13 17 12 9 7 4 10 15 10 13 23 13 -10 -13 2 9 9 10 -1 -12 -4 7 14 15 6 6 19 15 3 6 6 3 22 35 18 4 5 10 12 4 -2 2 3 3 10 14 10 5 -2 -1 11 20 20 10 1 4 5 -5 -11 -5 -0 -0 5 11 8 2 1 1 4
14 14 14 15 15 17 18 14 12 13 13 14 14 13 13 12 12 12 8 11 17 12 9 9 2 8 20 11 4 20 23 6 -6 -3 2 6 10 8 -3 -6 -2 4 11 13 8 13 17 8 5 8 10 25 31 13 1 -3 -2 12 14 -1 -2 3 0 1 5 8 11 8 2 5 17 23 13 1 4 9 6 -0 -1 3 6 11 11 5 2 5 6 7
Height
5890 5891 5891 5891 5891 5892 5892 5892 5893 5893 5893 5894 5894 5895 5896 5896 5897 5898 5898 5898 5898 5899 5899 5899 5899 5899 5899 5899 5900 5900 5899 5899 5900 5900 5901 5900 5901 5902 5903 5904 5904 5905 5906 5908 5909 5910 5911 5910 5911 5912 5913 5913 5913 5913 5912 5913 5913 5913 5913 5913 5913 5912 5912 5911 5912 5912 5913 5913 5913 5913 5913 5913 5912 5912 5912 5911 5911 5910 5910 5911 5911 5910 5910 5910 5910 5910 5910 5911
5888 5888 5888 5889 5889 5889 5890 5890 5890 5891 5891 5892 5892 5893 5894 5895 5895 5896 5897 5897 5897 5897 5898 5898 5898 5898 5899 5899 5899 5899 5899 5899 5899 5900 5900 5900 5901 5902 5903 5904 5904 5905 5906 5908 5909 5910 5910 5910 5911 5913 5913 5914 5914 5914 5913 5914 5914 5913 5913 5913 5913 5913 5912 5912 5913 5913 5913 5913 5913 5914 5915 5914 5913 5913 5912 5911 5911 5911 5911 5911 5911 5911 5911 5911 5911 5911 5912 5912
5886 5886 5886 5886 5886 5886 5887 5887 5888 5888 5889 5889 5890 5891 5892 5893 5894 5895 5895 5896 5896 5896 5897 5897 5898 5898 5898 5898 5898 5898 5899 5899 5899 5899 5899 5900 5900 5901 5902 5903 5904 5905 5906 5907 5909 5909 5910 5911 5912 5913 5914 5914 5914 5914 5914 5914 5914 5914 5913 5913 5913 5913 5913 5913 5914 5913 5913 5913 5914 5915 5915 5914 5913 5912 5912 5912 5912 5912 5912 5912 5912 5912 5912 5912 5912 5912 5913 5913
5884 5884 5883 5883 5884 5884 5884 5885 5885 5886 5886 5887 5888 5888 5889 5890 5892 5893 5893 5894 5895 5895 5895 5896 5897 5897 5897 5897 5897 5898 5898 5898 5898 5898 5899 5899 5900 5901 5902 5903 5903 5904 5905 5907 5908 5909 5910 5911 5912 5913 5914 5914 5913 5913 5913 5913 5913 5913 5913 5913 5912 5913 5913 5914 5914 5914 5913 5914 5914 5915 5914 5913 5912 5912 5912 5912 5913 5913 5913 5913 5913 5912 5912 5912 5913 5913 5913 5914
5882 5882 5881 5881 5881 5881 5881 5882 5882 5883 5883 5884 5885 5886 5886 5887 5889 5890 5891 5892 5893 5893 5894 5895 5895 5896 5896 5896 5897 5897 5897 5897 5898 5898 5898 5898 5899 5900 5901 5902 5903 5903 5905 5907 5908 5909 5910 5910 5911 5912 5913 5913 5912 5912 5913 5913 5913 5913 5913 5912 5912 5913 5914 5915 5915 5914 5913 5914 5914 5915 5914 5913 5912 5912 5913 5913 5914 5914 5914 5914 5913 5913 5913 5913 5913 5914 5914 5914
5880 5880 5880 5879 5879 5879 5879 5879 5879 5880 5881 5881 5882 5883 5884 5885 5886 5887 5889 5890 5891 5892 5892 5893 5894 5894 5895 5895 5896 5896 5896 5896 5897 5897 5897 5898 5899 5900 5901 5902 5902 5903 5904 5906 5908 5908 5909 5910 5911 5912 5912 5912 5912 5913 5913 5913 5913 5912 5912 5912 5912 5914 5915 5915 5915 5914 5914 5914 5915 5915 5915 5913 5913 5913 5914 5914 5914 5914 5914 5914 5913 5914 5914 5914 5914 5915 5915 5915
5879 5878 5878 5877 5877 5877 5877 5876 5877 5877 5877 5878 5879 5880 5881 5882 5883 5884 5886 5887 5888 5889 5890 5891 5892 5893 5894 5894 5894 5895 5895 5896 5896 5896 5897 5897 5898 5899 5900 5901 5902 5903 5904 5906 5907 5908 5909 5910 5911 5912 5912 5913 5913 5913 5913 5913 5913 5912 5911 5911 5912 5914 5915 5915 5915 5914 5914 5914 5915 5915 5914 5913 5913 5914 5914 5914 5914 5913 5914 5914 5914 5914 5915 5915 5915 5915 5916 5916
5877 5876 5876 5876 5875 5875 5875 5874 5874 5874 5874 5875 5876 5877 5877 5878 5880 5881 5882 5884 5886 5887 5888 5889 5890 5891 5892 5893 5893 5893 5894 5895 5895 5895 5896 5896 5897 5898 5900 5901 5902 5903 5904 5905 5907 5907 5908 5909 5911 5912 5912 5912 5913 5913 5912 5913 5913 5911 5910 5911 5913 5914 5915 5915 5915 5915 5915 5915 5915 5914 5913 5913 5913 5913 5914 5914 5914 5913 5914 5914 5914 5915 5915 5915 5916 5916 5916 5916
5875 5874 5874 5873 5873 5873 5872 5872 5872 5872 5872 5872 5873 5873 5874 5875 5876 5877 5879 5881 5882 5884 5885 5887 5888 5889 5890 5891 5891 5892 5893 5894 5894 5895 5895 5896 5897 5898 5899 5900 5901 5902 5903 5904 5905 5906 5908 5909 5910 5911 5911 5912 5912 5912 5912 5912 5912 5911 5910 5912 5913 5914 5915 5916 5916 5916 5916 5916 5916 5914 5914 5913 5913 5913 5914 5914 5914 5914 5914 5914 5915 5915 5916 5916 5916 5916 5916 5916
5872 5872 5872 5871 5871 5871 5870 5870 5870 5870 5870 5869 5870 5870 5871 5872 5873 5874 5875 5877 5879 5881 5882 5884 5885 5887 5888 5889 5890 5891 5892 5893 5893 5894 5895 5895 5896 5897 5898 5899 5899 5900 5902 5903 5904 5906 5907 5908 5909 5909 5910 5911 5911 5911 5911 5911 5910 5909 5910 5912 5913 5914 5915 5917 5917 5917 5917 5916 5915 5915 5915 5915 5914 5914 5914 5915 5915 5915 5915 5915 5915 5916 5916 5916 5916 5917 5917 5917
5870 5869 5869 5869 5868 5868 5868 5868 5868 5867 5867 5867 5867 5867 5868 5868 5869 5871 5872 5874 5875 5877 5879 5881 5882 5884 5885 5886 5887 5889 5890 5891 5893 5893 5894 5894 5895 5896 5896 5897 5898 5899 5900 5901 5903 5905 5906 5906 5907 5908 5909 5909 5909 5910 5910 5909 5909 5908 5910 5912 5913 5914 5916 5917 5917 5917 5917 5916 5915 5915 5915 5915 5915 5915 5915 5915 5915 5915 5915 5916 5916 5916 5916 5916 5916 5917 5917 5917
5867 5867 5867 5866 5866 5866 5865 5865 5865 5865 5865 5864 5864 5864 5865 5865 5866 5867 5868 5870 5871 5873 5876 5877 5879 5881 5883 5884 5884 5886 5889 5890 5891 5892 5892 5893 5894 5895 5896 5896 5897 5897 5898 5899 5901 5903 5903 5904 5905 5907 5907 5908 5909 5909 5908 5906 5906 5907 5909 5912 5913 5914 5915 5916 5917 5917 5917 5916 5916 5915 5915 5915 5915 5916 5916 5916 5916 5916 5916 5916 5916 5916 5916 5916 5916 5917 5917 5916
5864 5864 5864 5864 5863 5863 5863 5863 5862 5862 5862 5862 5861 5862 5862 5862 5862 5863 5865 5867 5868 5870 5872 5874 5877 5878 5880 5881 5881 5885 5887 5888 5890 5890 5890 5891 5892 5893 5895 5896 5896 5896 5895 5895 5897 5898 5900 5902 5904 5905 5906 5907 5908 5907 5907 5905 5905 5906 5909 5912 5913 5914 5915 5916 5916 5917 5917 5917 5917 5916 5916 5916 5916 5917 5917 5917 5916 5916 5917 5917 5917 5917 5917 5917 5916 5917 5917 5917
5862 5861 5861 5861 5860 5860 5860 5860 5859 5859 5859 5858 5858 5859 5859 5859 5859 5860 5862 5863 5865 5867 5869 5871 5873 5875 5877 5877 5879 5883 5884 5885 5886 5887 5888 5889 5890 5891 5893 5895 5896 5895 5894 5894 5894 5895 5897 5900 5902 5903 5905 5905 5906 5907 5906 5906 5906 5906 5909 5911 5913 5914 5915 5916 5917 5917 5918 5917 5917 5917 5917 5917 5917 5918 5918 5917 5917 5917 5917 5917 5917 5917 5917 5917 5917 5917 5917 5917
5859 5859 5858 5858 5857 5857 5857 5857 5856 5856 5855 5855 5855 5856 5857 5857 5857 5858 5859 5860 5862 5864 5867 5868 5869 5872 5873 5874 5876 5880 5881 5881 5882 5884 5887 5887 5887 5888 5890 5892 5894 5894 5893 5893 5893 5894 5896 5898 5900 5902 5903 5903 5905 5906 5905 5905 5905 5905 5908 5911 5913 5915 5916 5917 5918 5918 5918 5918 5918 5919 5918 5918 5918 5919 5919 5918 5918 5918 5917 5917 5918 5918 5918 5918 5918 5918 5918 5918
5857 5856 5856 5855 5855 5854 5854 5854 5853 5852 5852 5852 5852 5853 5854 5854 5855 5855 5856 5858 5860 5861 5864 5865 5866 5868 5869 5870 5873 5876 5876 5876 5878 5882 5884 5885 5885 5885 5886 5888 5890 5891 5891 5892 5892 5893 5895 5897 5899 5900 5900 5902 5903 5904 5904 5904 5904 5904 5907 5910 5913 5915 5916 5918 5919 5919 5919 5919 5919 5919 5920 5920 5920 5920 5920 5920 5919 5919 5918 5918 5918 5918 5919 5919 5919 5919 5919 5919
5855 5854 5853 5853 5852 5851 5851 5851 5850 5849 5848 5848 5849 5849 5851 5852 5852 5853 5854 5855 5856 5857 5859 5861 5862 5865 5866 5867 5869 5871 5872 5872 5875 5878 5879 5881 5882 5882 5884 5886 5888 5889 5889 5889 5890 5891 5893 5895 5897 5898 5898 5900 5901 5902 5903 5903 5904 5904 5906 5910 5913 5914 5916 5918 5919 5919 5920 5919 5919 5920 5921 5921 5921 5921 5921 5920 5920 5920 5919 5918 5918 5919 5919 5920 5920 5920 5920 5920
5852 5851 5851 5850 5849 5849 5849 5848 5847 5846 5844 5844 5845 5846 5847 5849 5849 5849 5851 5851 5851 5852 5853 5855 5858 5861 5862 5863 5866 5868 5869 5870 5872 5875 5876 5877 5879 5880 5881 5883 5884 5886 5886 5887 5888 5890 5892 5894 5895 5896 5897 5898 5899 5900 5902 5904 5906 5906 5908 5910 5913 5915 5917 5918 5918 5919 5920 5919 5919 5920 5920 5921 5921 5921 5921 5921 5920 5919 5919 5919 5918 5919 5920 5920 5921 5921 5921 5921
5849 5848 5848 5847 5847 5846 5846 5846 5845 5843 5841 5840 5842 5843 5844 5845 5845 5846 5847 5847 5847 5847 5848 5850 5853 5855 5857 5860 5862 5864 5866 5868 5871 5874 5875 5875 5876 5877 5878 5879 5880 5882 5883 5884 5886 5888 5890 5892 5892 5893 5895 5896 5898 5900 5902 5906 5907 5907 5908 5911 5913 5915 5916 5917 5918 5919 5920 5919 5919 5920 5920 5920 5921 5921 5921 5921 5920 5919 5919 5919 5919 5919 5920 5921 5921 5921 5921 5920
5846 5845 5845 5844 5843 5843 5843 5843 5842 5841 5839 5837 5838 5839 5840 5841 5842 5842 5844 5844 5843 5843 5844 5846 5847 5850 5852 5854 5856 5858 5862 5865 5868 5871 5873 5873 5873 5874 5875 5876 5877 5878 5880 5883 5885 5886 5888 5889 5890 5892 5895 5897 5899 5901 5903 5906 5905 5904 5906 5909 5911 5913 5914 5915 5916 5917 5919 5919 5919 5919 5919 5919 5920 5920 5920 5920 5920 5920 5919 5919 5919 5919 5920 5921 5921 5921 5920 5920
5844 5843 5842 5841 5840 5840 5840 5840 5839 5838 5837 5835 5835 5835 5835 5837 5838 5838 5840 5840 5838 5840 5842 5842 5843 5846 5846 5848 5850 5853 5858 5861 5864 5867 5869 5870 5871 5871 5871 5872 5874 5875 5878 5881 5882 5883 5885 5886 5889 5893 5896 5898 5899 5900 5903 5904 5903 5903 5905 5907 5909 5910 5912 5913 5914 5916 5917 5917 5918 5918 5918 5918 5918 5919 5919 5919 5919 5919 5919 5918 5919 5919 5919 5919 5920 5920 5920 5920
5840 5840 5839 5838 5837 5836 5836 5836 5836 5835 5834 5833 5832 5831 5832 5833 5833 5835 5837 5838 5835 5835 5839 5839 5840 5842 5842 5842 5845 5848 5852 5858 5860 5862 5865 5867 5868 5869 5869 5870 5871 5874 5877 5878 5879 5880 5882 5885 5890 5894 5896 5896 5898 5898 5901 5902 5902 5902 5904 5904 5906 5908 5910 5911 5912 5913 5914 5915 5916 5917 5917 5917 5917 5918 5918 5918 5918 5919 5918 5918 5918 5918 5918 5918 5919 5919 5919 5919
5837 5836 5836 5835 5834 5833 5833 5833 5832 5832 5831 5830 5828 5828 5828 5828 5829 5830 5833 5835 5833 5830 5834 5836 5836 5838 5838 5839 5842 5844 5849 5854 5856 5857 5860 5863 5866 5867 5867 5868 5870 5872 5874 5875 5876 5879 5882 5886 5890 5892 5893 5894 5895 5896 5899 5900 5900 5901 5902 5902 5904 5905 5907 5909 5910 5911 5912 5913 5914 5915 5915 5916 5916 5917 5918 5918 5918 5918 5918 5918 5918 5918 5917 5918 5918 5918 5919 5919
5832 5832 5832 5832 5831 5830 5830 5830 5829 5829 5828 5827 5826 5824 5824 5824 5825 5826 5827 5831 5833 5828 5827 5831 5834 5835 5835 5835 5837 5841 5846 5849 5852 5853 5855 5860 5864 5865 5865 5867 5868 5869 5871 5873 5875 5878 5882 5886 5889 5889 5889 5891 5893 5894 5896 5898 5899 5900 5900 5901 5903 5904 5905 5908 5909 5909 5909 5910 5911 5913 5914 5914 5915 5916 5917 5917 5917 5917 5917 5917 5917 5917 5917 5917 5917 5917 5918 5918
5828 5828 5828 5828 5828 5827 5826 5826 5826 5826 5825 5825 5823 5821 5821 5820 5820 5822 5823 5826 5831 5827 5823 5827 5831 5832 5830 5829 5832 5837 5842 5845 5848 5850 5852 5856 5860 5862 5863 5865 5865 5866 5869 5871 5873 5876 5881 5885 5885 5885 5887 5889 5891 5892 5894 5897 5898 5899 5900 5901 5903 5904 5905 5906 5907 5908 5908 5908 5910 5912 5912 5913 5914 5915 5916 5916 5917 5917 5917 5916 5916 5916 5917 5917 5917 5917 5917 5917
5824 5824 5824 5824 5824 5823 5822 5822 5822 5823 5822 5822 5821 5819 5818 5817 5816 5818 5819 5820 5825 5825 5822 5823 5826 5828 5826 5826 5830 5834 5837 5840 5843 5846 5848 5851 5855 5858 5860 5861 5862 5865 5867 5869 5870 5873 5878 5881 5882 5882 5884 5886 5888 5889 5892 5895 5896 5897 5899 5901 5902 5903 5904 5905 5906 5906 5906 5907 5909 5910 5910 5911 5912 5914 5915 5916 5916 5916 5916 5916 5915 5916 5916 5916 5916 5916 5916 5916
5819 5819 5819 5819 5820 5820 5819 5818 5818 5819 5819 5818 5818 5817 5815 5814 5812 5813 5815 5815 5820 5822 5820 5820 5821 5823 5823 5822 5825 5828 5831 5836 5839 5841 5845 5848 5850 5853 5856 5857 5860 5863 5864 5864 5865 5870 5875 5878 5879 5880 5881 5883 5885 5887 5890 5893 5894 5896 5899 5901 5901 5902 5903 5904 5905 5904 5905 5906 5907 5907 5909 5909 5910 5913 5914 5914 5915 5916 5916 5916 5915 5915 5915 5915 5916 5915 5915 5915
5815 5815 5815 5815 5815 5816 5815 5814 5814 5815 5815 5815 5815 5814 5813 5812 5810 5810 5811 5812 5817 5819 5817 5816 5817 5819 5819 5818 5820 5824 5828 5833 5834 5837 5842 5844 5846 5849 5851 5854 5858 5861 5862 5861 5862 5869 5873 5874 5877 5879 5879 5879 5883 5887 5889 5891 5893 5897 5900 5900 5901 5902 5901 5902 5903 5904 5904 5904 5903 5905 5908 5908 5909 5911 5912 5912 5914 5915 5915 5915 5915 5915 5915 5914 5914 5914 5914 5914
5810 5810 5810 5810 5811 5812 5812 5811 5810 5811 5812 5811 5811 5811 5811 5809 5808 5807 5807 5809 5813 5814 5813 5813 5813 5814 5814 5814 5817 5820 5824 5827 5829 5832 5835 5837 5840 5844 5847 5852 5855 5857 5858 5857 5861 5867 5870 5872 5876 5877 5876 5877 5883 5887 5888 5888 5892 5897 5899 5898 5899 5899 5899 5900 5900 5902 5903 5900 5900 5904 5906 5906 5907 5909 5911 5910 5912 5914 5914 5914 5915 5915 5914 5914 5913 5913 5913 5912
5805 5805 5806 5806 5806 5807 5808 5807 5806 5806 5808 5807 5807 5807 5807 5806 5805 5803 5803 5806 5809 5809 5810 5810 5809 5809 5810 5811 5813 5816 5820 5823 5825 5827 5829 5831 5834 5838 5842 5847 5849 5851 5853 5853 5857 5863 5866 5868 5871 5872 5872 5877 5882 5885 5886 5887 5891 5895 5896 5895 5897 5897 5897 5897 5897 5899 5899 5896 5897 5902 5904 5904 5904 5906 5908 5909 5910 5913 5913 5913 5914 5914 5913 5913 5912 5912 5911 5910
5800 5800 5800 5801 5801 5802 5803 5802 5801 5802 5802 5802 5803 5803 5803 5803 5802 5800 5801 5805 5806 5806 5806 5805 5805 5806 5806 5807 5810 5814 5818 5820 5821 5823 5824 5826 5828 5831 5835 5838 5841 5844 5845 5846 5851 5857 5860 5862 5864 5866 5870 5875 5879 5881 5883 5886 5889 5891 5892 5893 5894 5894 5894 5894 5893 5894 5892 5892 5896 5900 5901 5900 5899 5902 5906 5907 5909 5911 5912 5912 5912 5912 5912 5912 5911 5911 5911 5910
5795 5795 5795 5796 5797 5798 5797 5796 5797 5798 5797 5797 5798 5799 5799 5799 5797 5798 5801 5803 5802 5802 5802 5802 5803 5803 5803 5803 5806 5811 5814 5817 5819 5820 5821 5823 5823 5826 5830 5833 5836 5839 5840 5843 5848 5853 5854 5857 5860 5863 5867 5871 5874 5876 5879 5882 5884 5886 5888 5890 5890 5890 5890 5890 5890 5890 5888 5891 5895 5897 5897 5894 5893 5899 5904 5905 5907 5909 5910 5911 5911 5911 5911 5910 5910 5911 5910 5909
5789 5789 5790 5790 5792 5792 5791 5790 5791 5793 5792 5792 5793 5794 5794 5793 5794 5798 5800 5799 5798 5799 5800 5800 5801 5801 5801 5802 5803 5806 5809 5812 5814 5816 5818 5820 5821 5823 5827 5830 5833 5837 5840 5843 5846 5849 5851 5853 5856 5859 5863 5866 5868 5871 5874 5877 5880 5882 5884 5886 5886 5886 5886 5886 5887 5887 5887 5890 5894 5895 5893 5888 5889 5897 5901 5902 5905 5907 5908 5910 5910 5910 5909 5909 5909 5909 5909 5908
5784 5784 5784 5785 5786 5786 5785 5785 5786 5788 5789 5788 5787 5789 5789 5788 5792 5797 5797 5796 5797 5797 5797 5798 5799 5799 5800 5801 5801 5801 5803 5807 5810 5811 5813 5815 5817 5819 5822 5825 5828 5832 5836 5839 5841 5845 5847 5848 5851 5854 5858 5862 5864 5867 5871 5875 5878 5880 5882 5884 5884 5883 5883 5884 5885 5885 5887 5889 5890 5891 5887 5884 5888 5895 5898 5900 5902 5904 5906 5907 5908 5909 5907 5907 5908 5908 5908 5907
5778 5778 5779 5779 5779 5780 5780 5780 5781 5783 5785 5784 5783 5783 5784 5786 5791 5794 5793 5793 5794 5793 5793 5794 5795 5796 5797 5799 5799 5799 5799 5802 5805 5808 5809 5811 5813 5816 5819 5822 5824 5827 5830 5832 5835 5840 5842 5845 5850 5853 5855 5860 5862 5865 5870 5873 5874 5877 5880 5880 5880 5881 5883 5883 5883 5884 5886 5886 5886 5885 5883 5883 5889 5893 5895 5896 5898 5900 5902 5904 5906 5906 5906 5906 5907 5907 5907 5906
5772 5772 5773 5773 5773 5774 5775 5776 5776 5777 5779 5780 5778 5777 5780 5784 5788 5788 5788 5789 5790 5790 5790 5791 5792 5793 5795 5796 5797 5797 5797 5798 5800 5803 5805 5807 5810 5813 5815 5819 5822 5824 5826 5829 5832 5836 5839 5844 5850 5851 5853 5857 5859 5863 5867 5868 5870 5873 5874 5875 5877 5881 5883 5882 5881 5882 5883 5882 5881 5881 5882 5884 5886 5888 5890 5893 5894 5896 5898 5900 5902 5903 5903 5903 5904 5905 5905 5904
5766 5766 5766 5767 5768 5768 5769 5770 5771 5771 5773 5774 5773 5773 5777 5780 5782 5783 5784 5785 5786 5787 5787 5787 5788 5790 5792 5794 5795 5795 5795 5796 5797 5798 5801 5803 5805 5809 5812 5815 5818 5821 5824 5827 5830 5834 5837 5841 5846 5848 5850 5854 5858 5861 5863 5864 5866 5869 5870 5873 5877 5879 5879 5879 5879 5879 5879 5879 5878 5879 5881 5882 5883 5884 5887 5891 5892 5893 5895 5897 5899 5900 5900 5901 5902 5903 5903 5903
5759 5760 5760 5760 5762 5763 5763 5764 5765 5765 5766 5767 5768 5770 5772 5775 5778 5779 5779 5780 5781 5782 5782 5783 5784 5786 5788 5791 5792 5792 5792 5793 5793 5794 5797 5799 5802 5806 5810 5812 5814 5817 5820 5823 5826 5830 5834 5837 5841 5844 5847 5851 5855 5857 5858 5859 5862 5865 5867 5871 5874 5874 5874 5875 5875 5874 5875 5876 5876 5877 5879 5880 5881 5883 5886 5889 5891 5892 5893 5894 5896 5897 5897 5898 5899 5900 5901 5901
5752 5753 5753 5753 5756 5757 5757 5757 5758 5759 5759 5760 5763 5766 5769 5771 5773 5774 5774 5775 5776 5777 5777 5779 5780 5782 5784 5787 5789 5789 5790 5790 5791 5791 5792 5795 5798 5803 5807 5810 5812 5814 5817 5819 5821 5825 5829 5832 5836 5840 5843 5847 5849 5850 5851 5855 5858 5861 5863 5866 5868 5869 5871 5872 5872 5872 5873 5873 5874 5875 5876 5878 5880 5883 5885 5888 5889 5890 5890 5891 5893 5894 5894 5896 5897 5898 5898 5899
5745 5746 5746 5747 5749 5750 5750 5750 5751 5752 5754 5756 5760 5762 5764 5766 5767 5768 5769 5770 5770 5772 5773 5774 5776 5777 5780 5783 5785 5786 5787 5788 5789 5789 5789 5790 5793 5798 5803 5807 5809 5811 5814 5816 5818 5822 5824 5827 5832 5836 5838 5840 5842 5844 5848 5852 5855 5857 5859 5860 5862 5865 5866 5868 5869 5869 5870 5870 5871 5872 5873 5875 5879 5882 5884 5886 5887 5888 5888 5889 5890 5891 5892 5893 5894 5895 5896 5896
5737 5738 5739 5740 5742 5743 5743 5744 5745 5747 5749 5751 5754 5756 5758 5760 5761 5763 5764 5764 5765 5767 5768 5770 5772 5774 5777 5780 5782 5784 5784 5785 5786 5787 5787 5788 5789 5791 5797 5803 5807 5809 5810 5811 5813 5817 5819 5821 5827 5831 5832 5834 5838 5842 5847 5851 5853 5854 5856 5857 5859 5861 5863 5865 5865 5864 5866 5868 5869 5870 5871 5873 5877 5879 5882 5884 5885 5885 5886 5886 5887 5888 5890 5891 5892 5893 5893 5894
5729 5730 5731 5733 5734 5735 5737 5738 5739 5741 5743 5746 5748 5750 5752 5754 5756 5757 5758 5758 5759 5761 5763 5765 5768 5771 5774 5776 5778 5780 5780 5781 5782 5783 5784 5786 5787 5789 5793 5798 5804 5807 5808 5808 5810 5814 5817 5819 5822 5826 5828 5832 5837 5841 5844 5847 5849 5851 5853 5855 5857 5858 5859 5860 5861 5862 5865 5866 5868 5869 5868 5869 5874 5877 5879 5880 5881 5882 5883 5884 5885 5886 5887 5888 5889 5890 5890 5891
5722 5722 5724 5726 5727 5728 5730 5731 5733 5735 5737 5740 5742 5744 5745 5747 5750 5752 5752 5752 5753 5755 5759 5761 5764 5767 5770 5772 5773 5774 5774 5775 5777 5779 5781 5783 5785 5788 5791 5794 5798 5803 5805 5805 5808 5812 5814 5815 5818 5823 5826 5830 5835 5838 5840 5842 5844 5845 5847 5850 5853 5855 5856 5859 5860 5861 5863 5864 5866 5867 5864 5866 5871 5874 5875 5877 5878 5879 5880 5881 5882 5883 5884 5885 5886 5887 5887 5887
5714 5714 5715 5718 5720 5721 5723 5725 5727 5729 5731 5732 5734 5736 5738 5741 5744 5746 5747 5747 5748 5751 5754 5757 5760 5763 5765 5766 5766 5766 5767 5770 5774 5776 5777 5778 5781 5785 5787 5790 5793 5797 5800 5803 5806 5808 5809 5809 5813 5818 5822 5824 5828 5830 5832 5835 5838 5839 5841 5845 5848 5851 5855 5857 5857 5858 5858 5859 5862 5863 5861 5864 5869 5871 5872 5874 5875 5876 5878 5879 5879 5880 5881 5882 5882 5883 5883 5883
5706 5706 5707 5710 5713 5714 5715 5717 5720 5721 5723 5725 5727 5731 5733 5736 5740 5742 5742 5743 5744 5746 5749 5752 5755 5757 5759 5760 5760 5761 5763 5767 5771 5772 5772 5774 5778 5782 5784 5785 5788 5791 5797 5802 5805 5807 5807 5807 5810 5812 5814 5816 5818 5822 5827 5832 5835 5836 5838 5841 5844 5847 5850 5852 5853 5853 5854 5856 5858 5859 5859 5862 5865 5867 5869 5870 5872 5873 5875 5875 5876 5877 5878 5878 5879 5879 5880 5880
5698 5699 5699 5702 5705 5707 5707 5710 5712 5714 5716 5718 5722 5725 5728 5731 5734 5736 5737 5739 5740 5742 5745 5748 5749 5751 5753 5754 5755 5757 5759 5762 5765 5766 5767 5771 5776 5779 5780 5782 5785 5788 5792 5797 5800 5803 5804 5804 5806 5809 5811 5814 5817 5822 5828 5832 5834 5835 5837 5839 5841 5843 5846 5848 5849 5849 5851 5854 5855 5856 5857 5859 5861 5864 5866 5867 5869 5870 5871 5872 5873 5874 5875 5875 5875 5876 5876 5877
5690 5691 5692 5693 5696 5699 5700 5702 5705 5707 5709 5712 5715 5719 5721 5725 5728 5730 5731 5733 5735 5737 5740 5744 5745 5746 5748 5749 5750 5752 5753 5756 5759 5762 5765 5769 5772 5775 5777 5780 5783 5785 5787 5790 5794 5797 5799 5800 5803 5806 5809 5814 5819 5824 5828 5830 5830 5833 5835 5837 5838 5840 5842 5843 5843 5845 5849 5851 5851 5853 5855 5856 5858 5861 5863 5864 5866 5867 5868 5869 5870 5871 5871 5872 5872 5873 5873 5873
5681 5683 5684 5684 5687 5691 5693 5695 5697 5700 5702 5705 5709 5712 5715 5718 5722 5724 5725 5728 5730 5732 5735 5738 5739 5741 5743 5744 5745 5746 5748 5752 5756 5759 5763 5766 5768 5770 5774 5777 5779 5782 5784 5786 5789 5793 5795 5796 5800 5803 5806 5811 5816 5820 5823 5826 5827 5830 5832 5834 5836 5837 5837 5838 5840 5844 5846 5846 5848 5851 5852 5852 5855 5858 5859 5861 5862 5863 5865 5866 5867 5867 5868 5869 5869 5870 5870 5871
5672 5675 5676 5677 5679 5683 5685 5687 5691 5693 5695 5698 5702 5705 5709 5712 5716 5718 5720 5722 5725 5726 5728 5731 5733 5735 5738 5738 5739 5742 5744 5748 5751 5754 5757 5762 5764 5766 5770 5773 5775 5779 5781 5783 5786 5789 5791 5793 5796 5799 5802 5806 5811 5816 5819 5822 5824 5826 5828 5830 5832 5834 5835 5837 5839 5841 5843 5844 5846 5848 5848 5849 5852 5854 5856 5858 5859 5860 5861 5862 5863 5864 5864 5865 5866 5866 5867 5867
5664 5666 5668 5670 5672 5674 5676 5680 5683 5687 5689 5691 5695 5699 5703 5706 5709 5711 5713 5717 5719 5721 5722 5726 5728 5730 5732 5733 5734 5738 5741 5744 5748 5751 5754 5759 5761 5763 5766 5769 5772 5776 5778 5780 5783 5784 5787 5789 5793 5795 5797 5800 5805 5811 5815 5818 5820 5822 5824 5826 5828 5830 5831 5834 5836 5838 5840 5841 5843 5844 5844 5846 5849 5851 5853 5854 5855 5856 5857 5858 5859 5860 5861 5862 5863 5863 5864 5864
5655 5657 5659 5662 5664 5666 5669 5672 5675 5679 5682 5685 5689 5693 5696 5700 5702 5705 5708 5711 5714 5716 5718 5721 5724 5725 5727 5728 5729 5733 5737 5740 5745 5750 5753 5755 5758 5760 5762 5766 5770 5773 5775 5778 5779 5781 5783 5786 5788 5791 5792 5794 5799 5806 5811 5815 5817 5817 5819 5822 5824 5825 5827 5829 5832 5834 5836 5837 5839 5840 5840 5842 5846 5848 5849 5851 5852 5853 5854 5854 5855 5857 5857 5859 5860 5860 5861 5861
5646 5649 5651 5654 5657 5659 5661 5664 5667 5672 5676 5679 5682 5686 5690 5693 5695 5699 5703 5705 5707 5711 5714 5717 5719 5720 5722 5725 5726 5729 5733 5737 5742 5748 5751 5751 5753 5757 5760 5763 5767 5770 5772 5774 5776 5778 5781 5782 5784 5787 5789 5791 5796 5801 5808 5812 5811 5811 5814 5817 5819 5821 5823 5825 5827 5829 5831 5834 5836 5836 5837 5840 5843 5844 5845 5847 5848 5850 5851 5852 5853 5854 5854 5855 5856 5857 5857 5857